Simultaneous Nadir Overpasses (SNOs) Predictions

Prediction of SNOs near equator between NOAA-19 and NPP Satellite Orbit:

Table of predicted SNOs near equator for the next 14.0 days since TLE Epoch: 11/30/2011
Index Date (NOAA-19) Time (NOAA-19) NOAA-19 Lat,Lon Date (NPP) Time (NPP) NPP Lat,Lon Distance(km) Time Diff (sec)
1 12/10/2011 12:06:04 30.00, 16.29 12/10/2011 12:03:34 29.80, 15.34 93.60 150
2 12/10/2011 12:57:02 -29.99,-176.45 12/10/2011 12:54:15 -29.79,-177.33 87.07 167
3 12/10/2011 13:48:09 29.96, -9.23 12/10/2011 13:45:04 29.81, -10.03 79.66 185
4 12/10/2011 14:39:07 -29.96, 158.03 12/10/2011 14:35:45 -29.80, 157.30 73.07 202
5 12/10/2011 15:30:15 29.98, -34.76 12/10/2011 15:26:34 29.82, -35.41 65.66 221
6 12/10/2011 16:21:13 -29.98, 132.50 12/10/2011 16:17:16 -29.87, 131.90 59.07 237
7 12/10/2011 17:12:20 29.94, -60.27 12/10/2011 17:08:04 29.84, -60.79 51.65 256
8 12/10/2011 18:03:19 -30.00, 106.97 12/10/2011 17:58:46 -29.88, 106.53 45.12 273
9 12/10/2011 18:54:26 29.96, -85.80 12/10/2011 18:49:35 29.91, -86.18 37.71 291
10 12/10/2011 19:45:24 -29.96, 81.46 12/10/2011 19:40:16 -29.89, 81.15 31.08 308
11 12/10/2011 20:36:32 29.98,-111.33 12/10/2011 20:31:05 29.92,-111.56 23.70 327
12 12/10/2011 21:27:30 -29.98, 55.93 12/10/2011 21:21:47 -29.96, 55.75 17.18 343
13 12/10/2011 22:18:37 29.95,-136.84 12/10/2011 22:12:35 29.93,-136.94 9.68 362
14 12/10/2011 23:09:35 -29.95, 30.42 12/10/2011 23:03:16 -29.92, 30.39 4.05 379
15 12/10/2011 23:57:41 19.44,-159.61 12/10/2011 23:51:05 19.44,-159.61 0.62 396
16 12/11/2011 00:41:22 6.03, 13.56 12/11/2011 00:34:30 6.02, 13.56 0.37 412
17 12/11/2011 01:32:41 -5.21,-179.40 12/11/2011 01:25:33 -5.20,-179.33 7.89 428
18 12/11/2011 02:24:03 3.97, -12.43 12/11/2011 02:16:36 3.91, -12.29 17.39 447
19 12/11/2011 03:15:21 -3.22, 154.63 12/11/2011 03:07:38 -3.15, 154.84 24.87 463
20 12/11/2011 04:06:45 1.85, -38.44 12/11/2011 03:58:42 1.79, -38.14 34.05 483
21 12/11/2011 04:58:03 -1.12, 128.62 12/11/2011 04:49:44 -1.03, 128.99 41.68 499
22 12/11/2011 05:49:25 -0.15, -64.42 12/11/2011 05:40:47 -0.27, -63.97 50.89 518
23 12/11/2011 06:40:45 0.99, 102.62 12/11/2011 06:31:50 1.09, 103.14 58.66 535
24 12/11/2011 07:40:04 -30.
